Pensacola NAS, FL

12:32 PM CDT on May 23, 2018 (GMT -0500)
Pensacola Naval Air Station

Weather History for KNPA - February, 2012

Change the Weather History Date:

Wednesday, February 22, 2012

  Actual Average Record
Temperature  
Mean Temperature 56 °F -  
Max Temperature 66 °F 63 °F 78 °F (2011)
Min Temperature 46 °F 46 °F 31 °F (1999)
Degree Days  
Heating Degree Days 9    
Growing Degree Days 6 (Base 50)    
Moisture  
Dew Point 57 °F    
Average Humidity 97    
Maximum Humidity 100    
Minimum Humidity 79    
Precipitation  
Precipitation 0.01 in - - ()
Sea Level Pressure  
Sea Level Pressure 29.93 in    
Wind  
Wind Speed 3 mph (SSW)    
Max Wind Speed 15 mph    
Max Gust Speed 24 mph    
Visibility 5 miles    
Events Fog , Rain    
Averages and records for this station are not official NWS values.
T = Trace of Precipitation, MM = Missing Value Source: NWS Daily Summary

Daily Weather History Graph

Daily Weather History Graph

Search for Another Location

Airport or City:

Astronomy

Feb. 22, 2012 Rise Set
Actual Time 6:23 AM CST 5:42 PM CST
Civil Twilight 5:59 AM CST 6:07 PM CST
Nautical Twilight 5:31 AM CST 6:35 PM CST
Astronomical Twilight 5:03 AM CST 7:02 PM CST
Moon 6:28 AM CST (2/22) 6:39 PM CST (2/22)
Length of Visible Light 12h 07m
Length of Day
11h 19m
New Moon, 1% of the Moon is Illuminated
Feb 22
New Moon
Feb 29
First Quarter
Mar 8
Full
Mar 14
Last Quarter
Mar 22
New

Hourly Weather History & Observations

Time (CST) Temp. Dew Point Humidity Pressure Visibility Wind Dir Wind Speed Gust Speed Precip Events Conditions
12:31 AM 51.8 °F 51.8 °F 100% 30.06 in 3.0 mi Calm Calm - N/A   Partly Cloudy
12:56 AM 52.0 °F 52.0 °F 100% 30.06 in 10.0 mi Calm Calm - N/A   Clear
1:12 AM 51.8 °F 50.0 °F 94% 30.05 in 1.8 mi Calm Calm - N/A   Clear
1:22 AM 51.8 °F 51.8 °F 100% 30.04 in 3.0 mi Calm Calm - N/A   Clear
1:46 AM 51.8 °F 51.8 °F 100% 30.04 in 1.8 mi Calm Calm - N/A   Clear
1:52 AM 51.8 °F 50.0 °F 94% 30.04 in 3.0 mi Calm Calm - N/A   Clear
1:56 AM 51.1 °F 50.0 °F 96% 30.05 in 8.0 mi Calm Calm - N/A   Clear
2:20 AM 50.0 °F 50.0 °F 100% 30.03 in 1.5 mi Calm Calm - N/A   Clear
2:31 AM 50.0 °F 50.0 °F 100% 30.03 in 1.0 mi Calm Calm - N/A   Mist
2:39 AM 48.2 °F 48.2 °F 100% 30.02 in 0.2 mi Calm Calm - 0.00 in Fog , Rain Light Rain
2:56 AM 50.0 °F 50.0 °F 100% 30.03 in 0.8 mi Calm Calm - 0.00 in   Mist
3:05 AM 48.2 °F 48.2 °F 100% 30.02 in 1.0 mi Calm Calm - N/A   Mist
3:15 AM 50.0 °F 50.0 °F 100% 30.02 in 3.0 mi Calm Calm - N/A   Scattered Clouds
3:19 AM 50.0 °F 50.0 °F 100% 30.02 in 2.0 mi Calm Calm - N/A   Mostly Cloudy
3:30 AM 50.0 °F 50.0 °F 100% 30.02 in 1.0 mi Calm Calm - N/A   Mist
3:44 AM 50.0 °F 50.0 °F 100% 30.02 in 0.5 mi Calm Calm - N/A Fog Fog
3:56 AM 50.0 °F 50.0 °F 100% 30.03 in 0.2 mi Calm Calm - N/A Fog Fog
4:56 AM 48.9 °F 48.9 °F 100% 30.02 in 0.5 mi Calm Calm - 0.00 in Fog , Rain Light Rain
5:04 AM 48.2 °F 48.2 °F 100% 30.02 in 1.2 mi Calm Calm - 0.00 in Rain Light Rain
5:26 AM 48.2 °F 48.2 °F 100% 30.02 in 3.0 mi Calm Calm - 0.00 in   Partly Cloudy
5:37 AM 48.2 °F 48.2 °F 100% 30.02 in 2.5 mi Calm Calm - 0.00 in   Mostly Cloudy
5:39 AM 48.2 °F 48.2 °F 100% 30.02 in 1.5 mi Calm Calm - 0.00 in   Scattered Clouds
5:51 AM 46.4 °F 46.4 °F 100% 30.02 in 1.5 mi Calm Calm - 0.00 in   Mostly Cloudy
5:56 AM 48.9 °F 48.0 °F 97% 30.02 in 3.0 mi Calm Calm - 0.00 in   Mostly Cloudy
6:56 AM 48.9 °F 48.9 °F 100% 30.02 in 5.0 mi Calm Calm - N/A Fog Shallow Fog
7:56 AM 59.0 °F 59.0 °F 100% 30.02 in 10.0 mi Calm Calm - N/A   Mostly Cloudy
8:56 AM 64.9 °F 61.0 °F 87% 30.01 in 10.0 mi SE 6.9 mph - N/A   Mostly Cloudy
9:56 AM 66.9 °F 60.1 °F 79% 29.99 in 10.0 mi SE 8.1 mph - N/A   Mostly Cloudy
10:15 AM 66.2 °F 60.8 °F 83% 29.97 in 10.0 mi SE 8.1 mph - N/A   Mostly Cloudy
10:56 AM 66.0 °F 61.0 °F 84% 29.96 in 10.0 mi SSE 5.8 mph - N/A   Overcast
11:56 AM 66.0 °F 62.1 °F 87% 29.94 in 10.0 mi SSE 8.1 mph - N/A   Overcast
12:44 PM 64.4 °F 62.6 °F 94% 29.90 in 9.0 mi South 5.8 mph - 0.00 in Rain Light Rain
12:56 PM 64.0 °F 63.0 °F 96% 29.90 in 5.0 mi Calm Calm - 0.00 in Rain Light Rain
1:18 PM 66.2 °F 64.4 °F 94% 29.88 in 10.0 mi South 8.1 mph - 0.01 in   Overcast
1:56 PM 66.9 °F 64.0 °F 90% 29.86 in 10.0 mi South 6.9 mph - 0.01 in   Overcast
2:56 PM 66.9 °F 64.0 °F 90% 29.83 in 10.0 mi South 8.1 mph - N/A   Overcast
3:32 PM 66.2 °F 64.4 °F 94% 29.81 in 10.0 mi South 9.2 mph - N/A   Overcast
3:56 PM 64.9 °F 64.0 °F 97% 29.81 in 10.0 mi South 8.1 mph - N/A   Overcast
4:14 PM 64.4 °F 64.4 °F 100% 29.80 in 6.0 mi SSW 10.4 mph - 0.00 in Rain Light Rain
4:27 PM 64.4 °F 64.4 °F 100% 29.79 in 10.0 mi SSW 11.5 mph - 0.00 in   Overcast
4:56 PM 66.0 °F 64.9 °F 96% 29.80 in 5.0 mi SSW 11.5 mph - 0.00 in   Overcast
5:56 PM 66.0 °F 64.9 °F 96% 29.78 in 5.0 mi SW 11.5 mph - N/A   Overcast
6:56 PM 66.0 °F 66.0 °F 100% 29.79 in 2.5 mi SW 13.8 mph 24.2 mph N/A   Overcast
7:42 PM 66.2 °F 66.2 °F 100% 29.79 in 4.0 mi WSW 10.4 mph 20.7 mph N/A   Overcast
7:56 PM 66.9 °F 66.9 °F 100% 29.79 in 3.0 mi WSW 12.7 mph 23.0 mph N/A   Overcast
8:23 PM - - N/A% - - North - - N/A   Unknown
8:56 PM 66.9 °F 66.0 °F 97% 29.80 in 4.0 mi WSW 15.0 mph 21.9 mph N/A   Overcast
9:56 PM 66.0 °F 66.0 °F 100% 29.79 in 2.5 mi SW 11.5 mph - N/A   Overcast
10:13 PM 66.2 °F 66.2 °F 100% 29.79 in 3.0 mi WSW 12.7 mph 23.0 mph N/A   Overcast
10:56 PM 66.0 °F 66.0 °F 100% 29.79 in 3.0 mi WSW 11.5 mph 21.9 mph N/A   Overcast
11:03 PM 66.2 °F 66.2 °F 100% 29.78 in 2.5 mi WSW 12.7 mph 21.9 mph 0.00 in Rain Light Rain
11:19 PM 66.2 °F 66.2 °F 100% 29.79 in 3.0 mi WSW 15.0 mph 21.9 mph 0.00 in   Overcast
11:37 PM 66.2 °F 66.2 °F 100% 29.80 in 2.0 mi WSW 8.1 mph 20.7 mph 0.00 in   Overcast
11:56 PM 66.0 °F 66.0 °F 100% 29.80 in 3.0 mi WSW 10.4 mph 23.0 mph 0.00 in   Overcast